Location: ??????
(55.8143°N, 38.2555°E)
Time: 07:28:11
(UTC+00:00)

SJ 16-02 - Pass Details

Date: 23 May 2024
Orbit: 594 x 606 km, 75.0° (Epoch: 24 June)

Event Time Altitude Azimuth Distance (km) Brightness Sun altitude
Exits shadow 00:03:55 - 191° (S) 2,326 3.8 -6.4°
Reaches altitude 10° 00:04:54 10° 189° (S) 1,929 3.4 -6.3°
Maximum altitude 00:09:08 59° 110° (ESE) 695 1.8 -5.9°
Drops below altitude 10° 00:13:23 10° 32° (NNE) 1,942 5.7 -5.5°
Sets 00:15:38 0° 29° (NNE) 2,849 6.9 -5.3°
